Change the Weather History Date:

Saturday, August 31, 2013

  Actual Average Record
Temperature  
Mean Temperature 65 °F -  
Max Temperature 72 °F 68 °F 84 °F (2008)
Min Temperature 59 °F 53 °F 46 °F (2001)
Growing Degree Days 15 (Base 50)    
Moisture  
Dew Point 60 °F    
Average Humidity 86    
Maximum Humidity 93    
Minimum Humidity 73    
Precipitation  
Precipitation 0.00 in - - ()
Sea Level Pressure  
Sea Level Pressure 29.83 in    
Wind  
Wind Speed 3 mph (SW)    
Max Wind Speed 9 mph    
Max Gust Speed -    
Averages and records for this station are not official NWS values.
T = Trace of Precipitation, MM = Missing Value Source: NWS Daily Summary

Daily Weather History Graph

Daily Weather History Graph

Search for Another Location

Airport or City:

Trip Planner

Search our weather history database for the weather conditions in past years. The results will help you decide how hot, cold, wet, or windy it might be!

Date:

Astronomy

Aug. 31, 2013 Rise Set
Actual Time 7:09 AM EDT 8:33 PM EDT
Civil Twilight 6:37 AM EDT 9:05 PM EDT
Nautical Twilight 5:58 AM EDT 9:43 PM EDT
Astronomical Twilight 5:16 AM EDT 10:24 PM EDT
Moon 2:25 AM EDT (8/31) 5:42 PM EDT (8/31)
Length of Visible Light 14h 27m
Length of Day
13h 23m
Waning Crescent, 21% of the Moon is Illuminated
Aug 31
Waning Crescent
Sep 5
New
Sep 12
First Quarter
Sep 19
Full
Sep 26
Last Quarter

Hourly Weather History & Observations

Time (EDT) Temp. Dew Point Humidity Pressure Visibility Wind Dir Wind Speed Gust Speed Precip Events Conditions
12:51 AM 59.0 °F 57.0 °F 93% 29.94 in - Variable 3.5 mph - N/A   Unknown
1:51 AM 60.1 °F 55.9 °F 86% 29.93 in - Calm Calm - N/A   Unknown
2:51 AM 59.0 °F 55.9 °F 90% 29.92 in - Calm Calm - N/A   Unknown
3:51 AM 59.0 °F 57.0 °F 93% 29.90 in - Calm Calm - N/A   Unknown
4:51 AM 60.1 °F 57.0 °F 90% 29.90 in - Calm Calm - N/A   Unknown
5:51 AM 60.1 °F 57.9 °F 93% 29.89 in - Calm Calm - N/A   Unknown
6:51 AM 61.0 °F 57.9 °F 90% 29.88 in - Calm Calm - N/A   Unknown
7:51 AM 61.0 °F 57.9 °F 90% 29.88 in - Calm Calm - N/A   Unknown
8:51 AM 61.0 °F 59.0 °F 93% 29.90 in - Calm Calm - N/A   Unknown
9:51 AM 61.0 °F 57.9 °F 90% 29.88 in - Calm Calm - N/A   Unknown
10:51 AM 64.0 °F 59.0 °F 84% 29.86 in - Variable 4.6 mph - N/A   Unknown
11:51 AM 66.9 °F 59.0 °F 76% 29.84 in - SSW 3.5 mph - N/A   Unknown
12:51 PM 66.9 °F 60.1 °F 79% 29.83 in - ENE 3.5 mph - N/A   Unknown
1:51 PM 68.0 °F 61.0 °F 78% 29.81 in - Calm Calm - N/A   Unknown
2:51 PM 70.0 °F 62.1 °F 76% 29.80 in - Variable 4.6 mph - N/A   Unknown
3:51 PM 69.1 °F 60.1 °F 73% 29.79 in - WSW 9.2 mph - N/A   Unknown
4:51 PM 71.1 °F 62.1 °F 73% 29.79 in - WSW 5.8 mph - N/A   Unknown
5:51 PM 70.0 °F 64.0 °F 81% 29.79 in - Calm Calm - N/A   Unknown
6:51 PM 70.0 °F 63.0 °F 78% 29.75 in - SSW 6.9 mph - N/A   Unknown
7:51 PM 64.9 °F 61.0 °F 87% 29.75 in - SW 6.9 mph - N/A   Unknown
8:51 PM 64.0 °F 61.0 °F 90% 29.75 in - WSW 5.8 mph - N/A   Unknown
9:51 PM 64.9 °F 61.0 °F 87% 29.75 in - WSW 8.1 mph - N/A   Unknown
10:51 PM 64.9 °F 62.1 °F 90% 29.73 in - WSW 9.2 mph - N/A   Unknown
11:51 PM 64.0 °F 62.1 °F 93% 29.71 in - West 8.1 mph - N/A   Unknown